Hourly Weather Bolshie Golubochki

Today, 20 June, Sunday

Time Temperature Precipitation Wind Pressure Humidity
00:00 +18°C° 0 mm 2 mps 754 mmHg 90%
01:00 +17°C° 0 mm 2 mps 754 mmHg 91%
02:00 +18°C° 0 mm 1 mps 754 mmHg 91%
03:00 +18°C° 0 mm 1 mps 754 mmHg 90%
04:00 +19°C° 0 mm 1 mps 754 mmHg 89%
05:00 +18°C° 0 mm 2 mps 754 mmHg 88%
06:00 +20°C° 0 mm 2 mps 754 mmHg 82%
07:00 +21°C° 0 mm 2 mps 754 mmHg 76%
08:00 +24°C° 0 mm 2 mps 754 mmHg 71%
09:00 +25°C° 0 mm 3 mps 754 mmHg 67%
10:00 +26°C° 0 mm 3 mps 753 mmHg 63%
11:00 +27°C° 0 mm 3 mps 753 mmHg 59%
12:00 +27°C° 0 mm 3 mps 753 mmHg 58%
13:00 +27°C° 0 mm 3 mps 753 mmHg 57%
14:00 +28°C° 0 mm 3 mps 753 mmHg 56%
15:00 +27°C° 0 mm 3 mps 752 mmHg 60%
16:00 +27°C° 0 mm 2 mps 752 mmHg 65%
17:00 +27°C° 0 mm 2 mps 752 mmHg 69%
18:00 +25°C° 0 mm 2 mps 752 mmHg 75%
19:00 +23°C° 0 mm 2 mps 752 mmHg 80%
20:00 +21°C° 0 mm 2 mps 752 mmHg 85%
21:00 +20°C° 0 mm 2 mps 752 mmHg 86%
22:00 +19°C° 0 mm 2 mps 752 mmHg 87%
23:00 +18°C° 0 mm 2 mps 752 mmHg 88%

Tomorrow, 21 June, Monday

Time Temperature Precipitation Wind Pressure Humidity
00:00 +18°C° 0 mm 2 mps 752 mmHg 88%
01:00 +18°C° 0 mm 2 mps 752 mmHg 88%
02:00 +18°C° 0 mm 2 mps 752 mmHg 88%
03:00 +18°C° 0 mm 2 mps 752 mmHg 88%
04:00 +18°C° 0 mm 2 mps 752 mmHg 88%
05:00 +19°C° 0 mm 2 mps 752 mmHg 88%
06:00 +20°C° 0 mm 3 mps 752 mmHg 83%
07:00 +22°C° 0 mm 3 mps 752 mmHg 78%
08:00 +24°C° 0 mm 3 mps 752 mmHg 73%
09:00 +25°C° 0 mm 4 mps 752 mmHg 70%
10:00 +26°C° 0 mm 4 mps 752 mmHg 67%
11:00 +27°C° 0 mm 4 mps 751 mmHg 64%
12:00 +28°C° 0 mm 4 mps 751 mmHg 64%
13:00 +28°C° 0 mm 4 mps 751 mmHg 64%
14:00 +29°C° 0 mm 4 mps 751 mmHg 64%
15:00 +28°C° 0 mm 4 mps 751 mmHg 68%
16:00 +28°C° 0 mm 4 mps 751 mmHg 71%
17:00 +28°C° 0 mm 3 mps 751 mmHg 75%
18:00 +26°C° 0 mm 3 mps 751 mmHg 80%
19:00 +25°C° 0 mm 3 mps 751 mmHg 86%
20:00 +22°C° 0 mm 3 mps 751 mmHg 91%
21:00 +22°C° 0 mm 3 mps 751 mmHg 91%
22:00 +21°C° 0 mm 3 mps 751 mmHg 92%
23:00 +20°C° 0 mm 3 mps 751 mmHg 92%

Day after tomorrow, 22 June, Tuesday

Time Temperature Precipitation Wind Pressure Humidity
00:00 +20°C° 0 mm 3 mps 751 mmHg 92%
01:00 +20°C° 0 mm 3 mps 751 mmHg 92%
02:00 +19°C° 0 mm 3 mps 751 mmHg 92%
03:00 +19°C° 0 mm 3 mps 751 mmHg 91%
04:00 +20°C° 0 mm 3 mps 751 mmHg 90%
05:00 +20°C° 0 mm 3 mps 751 mmHg 90%
06:00 +22°C° 0 mm 3 mps 751 mmHg 84%
07:00 +25°C° 0 mm 4 mps 752 mmHg 78%
08:00 +26°C° 0 mm 4 mps 752 mmHg 71%
09:00 +28°C° 0 mm 5 mps 752 mmHg 68%
10:00 +29°C° 0 mm 5 mps 752 mmHg 64%
11:00 +30°C° 0 mm 5 mps 752 mmHg 61%
12:00 +30°C° 0 mm 5 mps 752 mmHg 61%
13:00 +32°C° 0 mm 5 mps 751 mmHg 61%
14:00 +32°C° 0 mm 5 mps 751 mmHg 61%
15:00 +30°C° 0 mm 4 mps 751 mmHg 64%
16:00 +30°C° 0 mm 4 mps 751 mmHg 68%
17:00 +30°C° 0 mm 4 mps 751 mmHg 72%
18:00 +28°C° 0 mm 3 mps 751 mmHg 77%
19:00 +26°C° 0 mm 3 mps 751 mmHg 83%
20:00 +25°C° 0 mm 3 mps 751 mmHg 88%
21:00 +24°C° 0 mm 3 mps 751 mmHg 89%
22:00 +22°C° 0 mm 3 mps 751 mmHg 89%
23:00 +22°C° 0 mm 3 mps 751 mmHg 90%

23 June, Wednesday

Time Temperature Precipitation Wind Pressure Humidity
00:00 +21°C° 0 mm 3 mps 751 mmHg 90%
01:00 +21°C° 0 mm 2 mps 752 mmHg 89%
02:00 +20°C° 0 mm 2 mps 752 mmHg 89%
03:00 +21°C° 0 mm 2 mps 752 mmHg 88%
04:00 +21°C° 0 mm 2 mps 752 mmHg 86%
05:00 +21°C° 0 mm 2 mps 752 mmHg 85%
06:00 +24°C° 0 mm 3 mps 752 mmHg 80%
07:00 +25°C° 0 mm 3 mps 752 mmHg 75%
08:00 +27°C° 0 mm 4 mps 752 mmHg 69%
09:00 +28°C° 0 mm 4 mps 752 mmHg 65%
10:00 +29°C° 0 mm 4 mps 752 mmHg 61%
11:00 +30°C° 0 mm 4 mps 752 mmHg 56%
12:00 +32°C° 0 mm 4 mps 752 mmHg 55%
13:00 +32°C° 0 mm 4 mps 752 mmHg 54%
14:00 +32°C° 0 mm 4 mps 752 mmHg 54%
15:00 +31°C° 0 mm 3 mps 752 mmHg 59%
16:00 +30°C° 0 mm 3 mps 752 mmHg 64%
17:00 +30°C° 0 mm 3 mps 752 mmHg 68%
18:00 +28°C° 0 mm 2 mps 752 mmHg 73%
19:00 +27°C° 0 mm 2 mps 752 mmHg 78%
20:00 +25°C° 0 mm 2 mps 752 mmHg 83%
21:00 +24°C° 0 mm 2 mps 752 mmHg 85%
22:00 +24°C° 0 mm 2 mps 752 mmHg 87%
23:00 +23°C° 0 mm 2 mps 752 mmHg 89%

24 June, Thursday

Time Temperature Precipitation Wind Pressure Humidity
00:00 +23°C° 0 mm 2 mps 752 mmHg 90%
01:00 +21°C° 0 mm 2 mps 752 mmHg 90%
02:00 +22°C° 0 mm 1 mps 752 mmHg 90%
03:00 +23°C° 0 mm 2 mps 752 mmHg 90%
04:00 +23°C° 0 mm 2 mps 752 mmHg 89%
05:00 +23°C° 0 mm 2 mps 752 mmHg 89%
06:00 +25°C° 0 mm 2 mps 752 mmHg 84%
07:00 +27°C° 0 mm 2 mps 752 mmHg 79%
08:00 +28°C° 0 mm 2 mps 752 mmHg 74%
09:00 +29°C° 0 mm 2 mps 752 mmHg 70%
10:00 +30°C° 0 mm 2 mps 752 mmHg 65%
11:00 +31°C° 0 mm 2 mps 752 mmHg 61%
12:00 +32°C° 0 mm 2 mps 752 mmHg 58%
13:00 +32°C° 0 mm 2 mps 751 mmHg 56%
14:00 +34°C° 0 mm 2 mps 751 mmHg 54%
15:00 +33°C° 0 mm 1 mps 751 mmHg 57%
16:00 +33°C° 0 mm 1 mps 751 mmHg 60%
17:00 +32°C° 0 mm 1 mps 751 mmHg 63%
18:00 +31°C° 0 mm 1 mps 751 mmHg 68%
19:00 +29°C° 0 mm 2 mps 751 mmHg 72%
20:00 +27°C° 0 mm 2 mps 750 mmHg 76%
21:00 +26°C° 0 mm 2 mps 750 mmHg 78%
22:00 +25°C° 0 mm 2 mps 750 mmHg 80%
23:00 +24°C° 0 mm 1 mps 750 mmHg 82%

25 June, Friday

Time Temperature Precipitation Wind Pressure Humidity
00:00 +24°C° 0 mm 1 mps 750 mmHg 84%
01:00 +23°C° 0 mm 1 mps 750 mmHg 85%
02:00 +23°C° 0 mm 1 mps 750 mmHg 86%
03:00 +23°C° 0 mm 1 mps 750 mmHg 86%
04:00 +24°C° 0 mm 1 mps 750 mmHg 85%
05:00 +24°C° 0 mm 1 mps 750 mmHg 84%
06:00 +26°C° 0 mm 1 mps 750 mmHg 79%
07:00 +27°C° 0 mm 1 mps 750 mmHg 73%
08:00 +29°C° 0 mm 2 mps 750 mmHg 68%
09:00 +30°C° 0 mm 2 mps 750 mmHg 65%
10:00 +31°C° 0 mm 3 mps 750 mmHg 61%
11:00 +33°C° 0 mm 3 mps 750 mmHg 58%
12:00 +33°C° 0 mm 3 mps 749 mmHg 58%
13:00 +33°C° 0 mm 3 mps 749 mmHg 58%
14:00 +33°C° 0 mm 3 mps 749 mmHg 57%
15:00 +33°C° 0.2 mm 3 mps 749 mmHg 62%
16:00 +31°C° 0.2 mm 3 mps 748 mmHg 66%
17:00 +30°C° 0.2 mm 2 mps 748 mmHg 71%
18:00 +28°C° 0.3 mm 2 mps 748 mmHg 76%
19:00 +26°C° 0.3 mm 2 mps 748 mmHg 80%
20:00 +24°C° 0.3 mm 2 mps 748 mmHg 85%
21:00 +24°C° 0 mm 2 mps 748 mmHg 86%
22:00 +23°C° 0 mm 2 mps 748 mmHg 88%
23:00 +23°C° 0 mm 2 mps 748 mmHg 90%
Show more